Weather History for Beauvechain, Belgium

Change the Weather History Date:

Thursday, October 31, 2013

  Actual Average Record
Temperature  
Mean Temperature 48 °F -  
Max Temperature 55 °F 44 °F 64 °F (2014)
Min Temperature 42 °F 39 °F 30 °F (1997)
Degree Days  
Heating Degree Days 16    
Moisture  
Dew Point 42 °F    
Average Humidity 77    
Maximum Humidity 93    
Minimum Humidity 57    
Precipitation  
Precipitation 0.00 in - - ()
Sea Level Pressure  
Sea Level Pressure 30.18 in    
Wind  
Wind Speed 11 mph ()    
Max Wind Speed 23 mph    
Max Gust Speed -    
Visibility 7.7 miles    
Events      
Averages and records for this station are not official NWS values.
T = Trace of Precipitation, MM = Missing Value Source: Averaged Metar Reports

Daily Weather History Graph

Daily Weather History Graph

Search for Another Location

Airport:

Trip Planner

Search our weather history database for the weather conditions in past years. The results will help you decide how hot, cold, wet, or windy it might be!

Date:

Astronomy

Oct. 31, 2013 Rise Set
Actual Time 7:30 AM CET 5:17 PM CET
Civil Twilight 6:56 AM CET 5:51 PM CET
Nautical Twilight 6:17 AM CET 6:30 PM CET
Astronomical Twilight 5:39 AM CET 7:08 PM CET
Moon 3:44 AM CET (10/31) 3:43 PM CET (10/31)
Length of Visible Light 10h 55m
Length of Day
9h 46m
Waning Crescent, 11% of the Moon is Illuminated
Oct 31
Waning Crescent
Nov 3
New
Nov 10
First Quarter
Nov 17
Full
Nov 25
Last Quarter

Hourly Weather History & Observations

Time (CET) Temp. Windchill Dew Point Humidity Pressure Visibility Wind Dir Wind Speed Gust Speed Precip Events Conditions
12:25 AM 44.6 °F 38.8 °F 41.0 °F 87% 30.27 in 6.2 mi South 11.5 mph - N/A   Unknown
1:25 AM 44.6 °F 39.2 °F 41.0 °F 87% 30.27 in 6.2 mi South 10.4 mph - N/A   Unknown
2:25 AM 44.6 °F 39.2 °F 41.0 °F 87% 30.24 in 6.2 mi South 10.4 mph - N/A   Unknown
3:25 AM 44.6 °F 39.7 °F 39.2 °F 81% 30.24 in 6.2 mi South 9.2 mph - N/A   Unknown
4:00 AM 44 °F - 40 °F 82% 30.27 in 14 mi South 6.7 mph - -  
4:25 AM 42.8 °F 38.0 °F 41.0 °F 93% 30.24 in 6.2 mi SSW 8.1 mph - N/A   Unknown
5:25 AM 42.8 °F 37.0 °F 41.0 °F 93% 30.24 in 6.2 mi South 10.4 mph - N/A   Clear
6:25 AM 42.8 °F 37.0 °F 39.2 °F 87% 30.24 in 6.2 mi South 10.4 mph - N/A   Partly Cloudy
6:50 AM 42.8 °F 36.6 °F 39.2 °F 87% 30.21 in 6.2 mi South 11.5 mph - N/A   Partly Cloudy
7:00 AM 42 °F - 40 °F 89% 30.25 in 16 mi South 11.2 mph - -   Clear
7:10 AM 42.8 °F 36.2 °F 39.2 °F 87% 30.21 in 6.2 mi South 12.7 mph - N/A   Partly Cloudy
7:25 AM 42.8 °F 37.0 °F 39.2 °F 87% 30.21 in 6.2 mi South 10.4 mph - N/A   Partly Cloudy
8:25 AM 42.8 °F 36.2 °F 41.0 °F 93% 30.21 in 6.2 mi South 12.7 mph - N/A   Partly Cloudy
9:25 AM 46.4 °F 41.1 °F 41.0 °F 81% 30.24 in 6.2 mi SSW 11.5 mph - N/A   Mostly Cloudy
10:00 AM 47 °F - 41 °F 74% 30.24 in 16 mi South 13.4 mph - -   Clear
10:25 AM 50.0 °F - 42.8 °F 76% 30.21 in 6.2 mi South 13.8 mph - N/A   Mostly Cloudy
11:25 AM 51.8 °F - 42.8 °F 71% 30.21 in 6.2 mi SSW 15.0 mph - N/A   Mostly Cloudy
12:25 PM 53.6 °F - 42.8 °F 67% 30.18 in 6.2 mi SSW 17.3 mph - N/A   Partly Cloudy
1:00 PM 54 °F - 44 °F 59% 30.19 in 16 mi SSW 20.1 mph - -   Scattered Clouds
1:25 PM 53.6 °F - 42.8 °F 67% 30.18 in 6.2 mi SSW 23.0 mph - N/A   Scattered Clouds
2:25 PM 53.6 °F - 42.8 °F 67% 30.15 in 6.2 mi SSW 17.3 mph - N/A   Scattered Clouds
3:25 PM 53.6 °F - 42.8 °F 67% 30.12 in 6.2 mi SSW 15.0 mph - N/A   Mostly Cloudy
4:00 PM 53 °F - 42 °F 57% 30.14 in 19 mi SSW 13.4 mph - -   Mostly Cloudy
4:25 PM 51.8 °F - 42.8 °F 71% 30.12 in 6.2 mi South 13.8 mph - N/A   Mostly Cloudy
5:22 PM 51.8 °F - 42.8 °F 71% 30.12 in 6.2 mi South 13.8 mph - N/A   Mostly Cloudy
5:25 PM 51.8 °F - 42.8 °F 71% 30.12 in 6.2 mi SSW 13.8 mph - N/A   Mostly Cloudy
6:25 PM 51.8 °F - 42.8 °F 71% 30.12 in 6.2 mi SSW 17.3 mph - N/A   Mostly Cloudy
7:00 PM 52 °F - 43 °F 63% 30.12 in 25 mi SSW 17.9 mph - -   Mostly Cloudy
7:14 PM 51.8 °F - 42.8 °F 71% 30.12 in 6.2 mi SSW 19.6 mph - N/A   Overcast
7:25 PM 51.8 °F - 44.6 °F 76% 30.12 in 6.2 mi SSW 17.3 mph - N/A   Mostly Cloudy
8:25 PM 51.8 °F - 44.6 °F 76% 30.09 in 6.2 mi SSW 16.1 mph - N/A   Mostly Cloudy
9:25 PM 51.8 °F - 42.8 °F 71% 30.09 in 6.2 mi SW 15.0 mph - N/A   Mostly Cloudy
10:00 PM 51 °F - 44 °F 68% 30.12 in 28 mi SW 13.4 mph - -   Mostly Cloudy
10:25 PM 51.8 °F - 42.8 °F 71% 30.09 in 6.2 mi SW 13.8 mph - N/A   Mostly Cloudy
11:25 PM 51.8 °F - 44.6 °F 76% 30.09 in 6.2 mi SSW 15.0 mph - N/A   Mostly Cloudy